Temp
13 10 10 11 11 12 13 12 12 13 14 11 10 12 11 8 8 7 8 7 7 7 7 6 5 4 4 4 4 5 5 5 5 5 5 5 5 4 3 3 3 3 4 4
12 10 12 12 11 12 12 12 12 13 14 11 11 10 12 8 8 8 8 7 7 6 6 5 4 3 3 3 3 4 4 4 4 4 4 4 3 2 2 2 2 3 3 3
9 11 13 12 12 12 12 11 12 12 14 12 11 10 10 11 10 10 10 11 9 8 6 5 4 3 2 2 2 2 3 3 3 3 2 1 1 1 2 1 1 2 2 2
10 13 13 12 12 12 11 12 12 13 13 10 10 11 11 12 10 10 9 9 9 7 6 5 4 3 2 1 1 2 2 2 2 2 1 1 2 2 1 1 1 1 1 1
10 13 12 12 13 12 12 14 12 13 10 10 10 8 10 11 11 13 8 10 9 7 6 4 4 4 2 1 0 0 1 1 1 1 1 1 1 1 1 1 1 0 0 0
10 12 12 11 13 12 13 13 12 11 8 7 12 10 13 13 13 14 14 11 9 8 5 4 3 3 2 1 -1 -1 -0 -0 0 0 0 0 1 1 1 1 0 0 0 -0
9 10 11 13 12 11 12 9 7 8 6 8 10 9 13 12 12 13 13 12 11 8 5 3 2 1 1 -0 -1 -1 -1 -1 -1 -1 -0 -0 0 0 0 0 0 -0 -0 -1
6 8 10 11 10 10 8 9 7 10 8 8 9 8 9 11 10 9 10 11 9 7 5 3 1 1 1 -0 -1 -1 -1 -2 -1 -1 -1 -1 -0 -0 -0 -0 -1 -1 -1 -2
8 9 11 10 11 11 10 8 11 9 8 7 8 9 10 10 8 7 7 10 7 5 3 1 -0 1 1 -1 -1 -1 -2 -2 -2 -1 -1 -1 -1 -1 -1 -1 -1 -2 -2 -2
9 8 10 9 11 11 10 9 8 8 8 9 8 9 10 13 9 5 5 3 4 2 1 -0 -1 0 -1 -1 -2 -2 -2 -2 -2 -2 -2 -2 -2 -2 -2 -2 -2 -2 -3 -4
8 7 8 9 8 8 8 8 9 8 7 9 11 11 8 7 5 4 4 3 2 0 -0 -1 -1 -1 -1 -2 -3 -3 -4 -3 -3 -3 -2 -2 -2 -2 -2 -3 -3 -3 -4 -5
5 6 6 7 8 7 9 10 10 9 8 7 10 11 2 2 2 3 3 2 1 0 -1 -1 -1 -1 -2 -3 -4 -4 -4 -4 -3 -3 -3 -3 -3 -3 -3 -3 -4 -5 -5 -5
4 4 5 6 7 7 8 8 7 7 7 7 8 9 3 2 1 2 2 2 1 -0 -2 -2 -2 -3 -4 -4 -4 -4 -4 -4 -4 -4 -4 -4 -4 -3 -4 -4 -5 -6 -5 -5
3 3 4 4 6 7 6 7 7 7 4 5 6 7 8 5 1 1 0 -0 -1 -2 -3 -3 -4 -4 -4 -4 -4 -5 -5 -5 -5 -4 -4 -4 -4 -5 -5 -5 -6 -6 -6 -6
3 3 4 4 4 4 5 5 5 5 6 5 6 6 7 4 -1 -1 1 -1 -2 -3 -4 -4 -5 -5 -5 -5 -5 -5 -6 -6 -6 -5 -5 -5 -5 -5 -6 -6 -6 -7 -6 -6
2 3 4 3 4 4 4 4 4 5 5 6 6 6 6 -0 1 -1 -1 -2 -4 -4 -4 -4 -4 -4 -5 -5 -6 -6 -7 -7 -7 -7 -8 -6 -6 -7 -7 -7 -7 -7 -6 -7
2 2 2 3 4 3 3 2 3 3 4 -1 3 0 -3 -1 -2 -2 -2 -2 -4 -5 -6 -6 -6 -5 -6 -7 -7 -8 -8 -8 -8 -8 -7 -7 -7 -8 -8 -8 -7 -7 -6 -7
1 1 2 2 2 2 0 -3 -3 -3 -4 -5 -5 -5 -5 -6 -4 -3 -2 -2 -4 -5 -6 -8 -8 -9 -9 -9 -9 -8 -8 -8 -9 -7 -7 -7 -8 -9 -9 -8 -7 -7 -7 -7
0 1 1 1 -1 3 0 -3 -4 -4 -4 -6 -6 -5 -5 -6 -5 -7 -5 -5 -6 -8 -9 -9 -9 -8 -8 -8 -8 -9 -8 -9 -8 -8 -8 -9 -9 -9 -8 -8 -8 -8 -8 -8
-2 -1 0 -4 1 2 -4 -5 -5 -5 -4 -7 -6 -7 -7 -6 -4 -7 -8 -6 -7 -8 -8 -8 -8 -8 -8 -9 -9 -9 -9 -9 -9 -9 -10 -10 -9 -8 -8 -8 -8 -8 -9 -9
-4 -3 -0 -1 1 -2 -6 -6 -6 -2 -5 -7 -7 -8 -10 -9 -10 -10 -9 -9 -8 -8 -8 -9 -9 -9 -9 -9 -9 -9 -10 -10 -10 -10 -10 -9 -9 -9 -9 -9 -9 -9 -9 -10
-2 -1 -0 -1 0 -0 -7 -5 -6 -7 -8 -8 -8 -9 -10 -11 -10 -10 -10 -10 -10 -10 -10 -9 -9 -9 -9 -10 -10 -10 -11 -11 -11 -10 -10 -10 -10 -9 -9 -9 -9 -10 -10 -10
-2 -6 -4 -5 -6 -8 -9 -9 -9 -9 -9 -9 -9 -9 -10 -10 -11 -10 -11 -11 -10 -10 -10 -10 -10 -10 -10 -11 -11 -11 -11 -10 -10 -10 -10 -10 -10 -10 -10 -10 -10 -10 -10 -10
-10 -10 -7 -6 -10 -11 -10 -10 -10 -10 -9 -8 -9 -9 -10 -10 -11 -11 -11 -11 -10 -10 -11 -11 -11 -11 -11 -11 -11 -11 -11 -11 -11 -11 -11 -11 -11 -11 -11 -11 -11 -11 -10 -10
-13 -12 -12 -9 -11 -10 -9 -11 -11 -10 -9 -9 -8 -9 -10 -10 -11 -11 -11 -11 -11 -11 -11 -11 -11 -10 -10 -11 -11 -11 -12 -12 -12 -12 -12 -12 -11 -11 -11 -11 -11 -11 -11 -12
-15 -15 -14 -13 -14 -14 -13 -12 -11 -11 -10 -10 -9 -9 -10 -10 -10 -10 -10 -10 -10 -10 -10 -10 -10 -11 -11 -11 -12 -12 -12 -12 -13 -13 -12 -12 -11 -11 -11 -11 -10 -11 -11 -11
Height
1491 1498 1495 1486 1486 1484 1485 1489 1490 1480 1477 1485 1483 1474 1472 1473 1475 1474 1473 1474 1474 1474 1479 1484 1487 1490 1494 1498 1502 1505 1509 1512 1515 1517 1519 1522 1524 1526 1526 1527 1528 1527 1527 1525
1492 1490 1477 1480 1483 1485 1486 1487 1482 1474 1468 1475 1474 1469 1461 1465 1461 1459 1460 1462 1462 1467 1470 1475 1478 1482 1486 1491 1496 1500 1504 1508 1511 1514 1517 1519 1521 1522 1523 1524 1525 1524 1523 1522
1491 1473 1468 1477 1480 1481 1481 1483 1477 1476 1468 1468 1469 1462 1462 1452 1449 1448 1447 1445 1448 1447 1453 1461 1466 1472 1479 1484 1490 1495 1500 1504 1508 1511 1513 1516 1518 1519 1520 1521 1522 1521 1520 1519
1484 1470 1471 1474 1472 1474 1482 1468 1470 1471 1474 1483 1466 1454 1447 1443 1440 1436 1435 1434 1434 1439 1446 1451 1457 1464 1470 1478 1486 1491 1495 1500 1504 1507 1510 1513 1515 1516 1518 1519 1519 1518 1517 1516
1478 1468 1470 1472 1461 1466 1464 1460 1465 1467 1474 1475 1467 1478 1441 1434 1435 1427 1423 1419 1422 1428 1433 1439 1446 1455 1465 1474 1480 1485 1491 1496 1500 1503 1506 1509 1511 1513 1514 1515 1515 1515 1514 1513
1474 1467 1467 1465 1462 1464 1462 1462 1463 1467 1477 1484 1451 1464 1425 1421 1418 1410 1406 1407 1414 1420 1426 1434 1443 1451 1461 1470 1476 1482 1487 1491 1496 1499 1502 1505 1508 1509 1510 1511 1512 1512 1511 1510
1471 1463 1457 1459 1464 1465 1465 1474 1489 1483 1491 1462 1440 1452 1415 1408 1405 1401 1398 1399 1402 1411 1419 1425 1432 1442 1453 1462 1468 1476 1483 1488 1492 1496 1499 1502 1504 1505 1506 1507 1508 1508 1507 1506
1484 1472 1458 1457 1460 1462 1466 1469 1485 1467 1468 1456 1441 1440 1419 1397 1395 1397 1395 1394 1397 1403 1410 1416 1424 1434 1445 1453 1462 1471 1478 1483 1488 1492 1495 1498 1500 1501 1502 1503 1503 1503 1502 1502
1477 1465 1453 1453 1453 1458 1463 1469 1456 1465 1459 1461 1439 1418 1403 1397 1397 1396 1395 1394 1396 1401 1406 1413 1422 1430 1439 1448 1457 1465 1472 1479 1484 1488 1491 1494 1496 1497 1498 1499 1499 1499 1498 1497
1472 1468 1456 1458 1455 1455 1458 1460 1467 1469 1466 1450 1435 1426 1415 1394 1396 1399 1399 1399 1400 1404 1409 1416 1422 1431 1440 1449 1456 1463 1470 1475 1480 1484 1487 1490 1493 1494 1494 1495 1495 1494 1493 1492
1474 1472 1460 1458 1460 1460 1460 1461 1459 1459 1459 1441 1427 1414 1410 1407 1408 1408 1404 1404 1404 1408 1412 1417 1423 1432 1440 1448 1454 1461 1468 1473 1477 1481 1485 1487 1489 1489 1490 1490 1490 1490 1489 1488
1480 1475 1463 1457 1454 1450 1448 1445 1444 1448 1445 1439 1426 1397 1416 1414 1412 1409 1410 1412 1412 1413 1416 1419 1424 1431 1439 1446 1452 1459 1466 1472 1476 1479 1482 1484 1485 1486 1486 1486 1485 1485 1484 1483
1482 1478 1468 1453 1449 1450 1447 1447 1449 1450 1444 1426 1434 1401 1416 1413 1413 1413 1413 1414 1416 1419 1423 1425 1429 1434 1440 1446 1452 1458 1464 1469 1473 1476 1478 1480 1481 1482 1483 1482 1480 1480 1480 1479
1484 1480 1475 1463 1455 1455 1455 1447 1444 1448 1449 1437 1427 1414 1409 1412 1417 1416 1417 1417 1418 1420 1424 1428 1433 1438 1443 1450 1455 1460 1463 1467 1470 1473 1475 1477 1478 1479 1479 1478 1477 1477 1476 1475
1476 1472 1472 1459 1455 1456 1452 1446 1441 1443 1432 1430 1409 1418 1402 1410 1413 1411 1413 1417 1416 1418 1422 1429 1434 1440 1446 1450 1455 1460 1464 1467 1469 1471 1473 1474 1475 1475 1475 1475 1474 1474 1472 1471
1472 1463 1463 1453 1449 1445 1442 1436 1435 1429 1420 1414 1409 1398 1405 1405 1407 1411 1410 1414 1411 1409 1415 1418 1428 1437 1443 1448 1452 1457 1462 1466 1469 1469 1470 1472 1472 1472 1471 1471 1471 1470 1468 1468
1470 1465 1462 1447 1444 1445 1438 1431 1425 1420 1417 1433 1413 1419 1423 1412 1407 1406 1408 1409 1416 1421 1423 1425 1430 1432 1438 1445 1450 1456 1460 1463 1466 1467 1469 1469 1469 1469 1468 1467 1466 1465 1465 1465
1460 1462 1460 1447 1447 1440 1434 1443 1442 1442 1444 1442 1436 1431 1426 1421 1412 1410 1411 1409 1413 1417 1423 1428 1430 1434 1440 1445 1451 1455 1458 1461 1464 1466 1465 1464 1464 1467 1467 1464 1462 1462 1461 1460
1457 1459 1453 1451 1457 1429 1434 1445 1450 1448 1444 1445 1440 1430 1425 1420 1415 1415 1414 1414 1417 1421 1423 1427 1434 1439 1444 1449 1453 1456 1458 1461 1461 1460 1462 1461 1461 1462 1462 1460 1460 1460 1458 1455
1457 1457 1456 1464 1441 1428 1457 1453 1449 1448 1442 1445 1441 1435 1428 1422 1415 1422 1420 1417 1420 1424 1428 1433 1439 1443 1446 1451 1454 1456 1459 1460 1460 1457 1459 1460 1459 1458 1458 1458 1456 1456 1454 1453
1463 1460 1450 1447 1437 1446 1460 1450 1442 1438 1450 1447 1444 1438 1433 1428 1428 1426 1425 1422 1426 1428 1430 1434 1440 1446 1449 1452 1455 1456 1458 1458 1457 1456 1456 1456 1456 1457 1456 1454 1454 1454 1453 1450
1454 1451 1443 1446 1438 1437 1460 1451 1456 1464 1455 1452 1446 1443 1439 1436 1432 1430 1430 1431 1434 1434 1434 1438 1441 1446 1451 1454 1454 1455 1455 1456 1455 1454 1453 1455 1454 1454 1453 1452 1452 1453 1452 1448
1454 1467 1460 1463 1465 1472 1470 1469 1467 1462 1458 1452 1448 1445 1443 1440 1438 1436 1437 1438 1438 1440 1441 1443 1445 1447 1450 1453 1454 1453 1453 1453 1452 1452 1452 1452 1452 1452 1452 1451 1450 1450 1449 1444
1470 1470 1465 1466 1472 1471 1471 1467 1465 1461 1458 1454 1450 1448 1446 1444 1443 1442 1441 1442 1443 1444 1445 1446 1448 1449 1451 1452 1452 1452 1451 1451 1451 1451 1451 1450 1451 1451 1451 1449 1448 1446 1443 1440
1486 1480 1480 1469 1471 1465 1464 1466 1465 1460 1458 1455 1453 1452 1449 1446 1446 1445 1445 1445 1446 1447 1448 1450 1450 1451 1451 1451 1450 1450 1450 1450 1450 1450 1450 1450 1450 1449 1448 1447 1445 1444 1442 1439
1494 1493 1490 1482 1483 1483 1474 1470 1466 1463 1459 1456 1454 1452 1451 1449 1448 1448 1448 1448 1449 1450 1450 1450 1450 1450 1450 1450 1450 1450 1449 1449 1449 1449 1448 1447 1447 1446 1445 1444 1443 1442 1440 1438
Wind_Speed
6 3 10 15 12 6 6 5 9 8 7 10 15 20 13 18 20 22 31 36 41 47 42 36 36 36 35 33 32 30 28 27 25 24 21 18 14 10 8 5 2 3 6 9
0 13 13 7 7 10 11 15 18 12 7 10 8 19 19 11 20 30 35 36 44 42 42 40 41 40 39 37 34 31 29 28 26 23 19 14 11 11 9 5 2 5 7 9
8 8 3 9 9 13 10 8 11 9 3 4 4 12 9 10 24 29 39 47 44 53 50 47 47 45 41 38 35 32 31 29 25 22 19 17 15 13 9 3 3 6 8 10
8 13 14 11 10 7 11 8 10 6 2 7 8 12 11 6 14 14 29 38 43 45 47 49 50 48 44 39 34 32 31 28 25 23 20 18 15 12 8 4 3 6 8 11
8 3 4 10 21 9 11 5 8 3 4 4 6 4 6 6 9 15 17 38 42 44 51 52 53 50 44 38 36 34 30 27 25 23 20 17 14 11 7 3 4 6 8 11
12 4 4 7 2 3 1 2 1 2 3 6 19 11 16 12 18 17 18 31 34 41 47 48 48 47 43 38 36 34 31 28 25 22 19 16 13 9 5 3 5 7 9 11
5 6 5 5 3 2 2 5 3 3 1 10 6 7 20 7 14 16 19 18 34 41 46 49 50 48 44 42 40 35 31 28 25 21 18 15 12 8 5 4 6 8 10 11
4 7 6 3 8 6 7 8 5 7 5 5 1 7 7 11 8 5 7 8 31 43 48 51 50 49 46 45 41 37 32 28 25 21 18 14 11 7 5 5 7 9 11 13
5 5 0 4 3 5 2 5 9 8 6 4 5 8 10 7 8 2 3 12 30 36 44 47 47 48 46 44 41 37 33 28 25 21 17 14 10 6 5 5 7 10 12 14
4 11 2 4 2 1 5 1 1 1 4 8 5 6 7 4 11 1 4 8 22 31 37 41 44 44 43 40 37 33 30 27 24 20 16 12 8 6 5 6 8 10 12 12
5 4 3 3 4 7 2 3 4 3 4 9 16 9 3 5 7 7 4 13 24 31 36 40 41 41 40 37 34 31 28 26 23 19 14 11 8 6 5 7 9 10 10 12
1 5 11 15 10 9 7 12 13 11 11 9 12 21 3 6 7 2 3 10 20 29 35 39 40 42 40 37 34 31 28 24 21 17 13 10 7 6 6 8 8 8 10 12
5 3 7 8 3 4 4 0 6 10 6 22 14 16 0 5 6 4 11 19 24 28 31 35 38 40 39 37 33 30 26 24 20 16 11 8 6 6 7 7 7 9 10 12
2 4 7 14 15 11 17 22 17 14 5 11 17 25 18 4 3 4 11 19 25 28 32 35 37 39 38 34 30 27 26 22 17 13 10 6 5 6 7 6 7 9 11 13
6 8 12 20 21 17 20 23 23 19 24 19 27 22 25 8 10 15 22 24 29 32 34 35 37 37 35 30 26 24 21 18 14 10 7 3 7 7 6 5 7 9 11 13
3 8 12 21 21 21 21 21 21 25 27 27 28 31 19 6 10 15 22 25 31 39 40 42 39 36 33 29 27 24 19 14 9 5 3 7 7 5 4 6 7 9 11 13
5 6 7 20 17 10 12 11 11 11 11 6 10 8 11 6 4 14 19 23 23 23 26 32 35 36 32 28 24 20 15 13 9 3 7 7 5 4 5 6 8 10 12 13
11 14 5 9 10 9 2 7 6 2 6 8 8 11 9 8 5 2 11 22 24 27 27 28 30 30 27 25 22 17 12 8 4 9 7 5 3 4 5 7 8 10 11 13
11 6 4 2 4 10 3 7 6 5 3 10 12 13 14 11 6 14 5 18 23 25 28 29 25 22 21 21 17 12 8 8 11 7 5 3 3 4 5 7 8 10 11 13
0 4 4 3 6 4 3 12 15 6 5 15 16 12 11 13 2 2 13 18 23 23 22 21 19 20 19 16 12 8 10 10 8 5 4 3 3 5 5 6 7 9 11 13
2 2 8 7 5 2 10 17 14 1 6 26 17 15 14 3 4 14 17 21 23 23 22 19 19 17 14 11 9 10 9 8 5 4 3 3 4 4 4 5 7 8 10 12
3 2 1 3 2 3 25 4 6 10 19 19 17 9 7 11 15 16 16 18 18 19 19 18 17 13 11 10 9 8 6 5 4 3 3 3 3 2 3 3 5 8 11 12
1 3 2 3 2 4 16 12 19 18 16 15 13 7 1 8 10 13 15 16 17 16 15 14 13 12 9 6 4 4 4 4 3 4 3 3 2 2 1 2 5 7 10 14
6 16 2 2 3 9 7 22 25 25 16 12 11 6 2 7 8 11 13 14 13 13 12 11 9 6 5 4 4 3 3 3 4 4 3 3 3 2 1 2 5 9 12 15
5 8 6 3 10 14 7 31 27 26 14 11 3 2 1 2 6 7 9 10 10 10 9 7 5 4 3 3 3 2 3 3 3 3 3 4 4 3 2 3 6 10 11 14
10 4 3 3 13 8 17 26 18 22 16 11 9 5 1 4 6 8 9 9 8 7 5 3 3 3 4 4 3 2 2 2 3 3 4 4 4 4 5 6 5 7 10 11
Wind_Direction
197 140 215 202 200 210 208 226 245 250 203 189 224 240 243 207 208 209 211 211 213 218 222 219 216 212 211 212 209 208 205 199 198 198 200 201 204 198 199 206 240 323 346 349
108 231 230 202 212 232 252 255 262 276 215 182 231 243 245 190 221 214 213 213 215 214 218 215 213 212 212 211 207 204 200 200 199 201 204 202 196 196 203 212 279 333 345 351
190 220 205 212 245 244 241 231 254 250 251 238 330 268 255 234 222 224 226 229 219 212 211 212 208 210 210 209 205 201 200 200 198 197 197 193 192 201 199 221 302 330 342 343
238 250 237 240 244 188 257 230 254 262 249 257 173 280 241 237 238 226 224 221 219 208 208 210 207 207 208 207 203 201 200 198 195 194 195 197 203 200 201 227 298 328 334 334
247 278 202 227 240 177 236 199 219 216 246 325 231 274 277 235 264 254 224 227 220 208 204 203 208 210 206 204 201 200 200 196 196 194 194 197 196 195 203 235 299 320 326 329
246 263 238 216 295 212 108 113 55 58 98 266 252 212 264 244 242 251 246 232 215 203 198 202 204 205 201 199 199 200 199 195 194 192 192 194 194 196 210 255 300 313 319 324
310 230 212 164 222 314 161 76 300 322 230 241 242 211 243 267 246 238 255 239 209 194 189 192 195 195 194 194 196 198 198 194 190 190 190 191 195 203 222 267 299 310 316 322
241 322 166 194 202 194 190 170 175 241 224 265 299 234 248 234 286 232 260 253 189 182 188 191 191 192 191 193 195 197 196 193 189 188 189 191 198 210 240 281 302 310 316 320
314 265 238 126 175 140 227 186 238 306 297 291 229 281 297 242 251 300 344 196 176 172 178 180 181 190 189 191 195 196 193 190 189 188 188 192 200 216 251 284 299 308 315 320
295 307 334 347 71 315 183 274 81 250 272 255 270 260 234 271 257 48 63 109 150 161 164 168 177 184 186 189 192 192 192 189 187 186 188 193 204 226 257 284 299 310 316 318
339 232 289 105 183 205 313 227 226 218 201 257 279 267 286 350 340 292 230 151 150 153 158 164 175 180 183 185 185 185 186 187 185 185 188 196 212 234 266 291 305 312 316 319
28 284 280 261 243 215 232 256 232 230 256 240 259 270 349 348 340 355 93 132 149 158 161 171 175 176 178 178 180 185 188 186 185 186 192 201 219 246 276 293 303 314 322 323
357 296 302 297 354 37 229 334 343 323 308 265 263 264 156 49 51 82 139 150 152 156 160 165 171 172 173 175 182 184 185 184 185 187 195 208 230 268 284 297 319 320 320 322
134 240 241 268 269 298 292 291 285 256 245 279 257 289 286 298 138 122 133 144 146 152 160 164 166 168 171 177 181 184 183 184 184 188 195 214 249 273 290 310 318 317 321 322
171 257 253 263 270 266 265 266 272 267 263 255 274 270 275 250 198 185 165 159 155 159 163 166 167 168 172 177 180 182 182 183 183 185 192 241 281 281 295 311 319 318 323 323
185 271 274 270 269 271 265 262 262 259 262 263 265 269 280 275 187 172 174 169 167 168 170 172 175 174 177 180 180 179 179 178 174 173 233 259 268 283 303 316 321 324 324 323
250 268 272 272 287 298 267 262 267 286 285 341 279 331 335 314 245 188 183 174 167 163 159 163 171 176 178 177 176 170 169 177 205 205 243 256 273 291 306 319 326 328 325 326
252 260 262 280 303 271 257 31 67 108 46 5 327 331 334 323 19 154 207 176 160 156 152 157 163 168 167 167 171 182 180 184 184 234 240 245 271 298 313 327 331 326 328 332
225 237 249 244 236 277 16 19 354 9 346 10 328 331 328 308 4 24 89 155 148 150 154 159 168 175 175 180 178 175 166 197 219 226 238 248 267 295 323 331 331 331 334 342
117 252 263 325 269 271 43 319 307 285 260 359 343 341 333 328 267 52 115 158 155 164 168 168 176 177 169 165 170 161 201 216 224 213 227 260 295 323 331 331 337 340 341 345
199 214 230 259 265 111 350 322 325 60 323 331 345 346 353 15 56 127 138 137 152 157 156 158 157 157 159 163 175 195 212 217 216 214 233 275 300 320 330 344 338 341 346 353
196 287 325 321 283 251 359 8 42 312 319 322 345 353 57 101 116 122 123 129 138 141 145 146 148 154 166 183 191 202 209 213 221 240 261 271 284 316 344 337 349 347 350 351
139 337 324 21 90 67 37 33 4 354 336 340 334 346 109 119 114 123 127 133 135 134 138 142 156 167 173 187 200 216 226 230 243 254 255 255 269 304 319 350 346 343 348 350
6 17 45 257 61 328 28 15 7 3 353 348 341 359 122 136 142 137 139 140 143 147 152 154 160 165 183 208 231 244 241 243 246 251 253 247 247 265 270 329 333 348 348 350
347 338 330 285 12 354 309 351 349 351 344 360 359 350 355 135 145 149 148 156 157 157 162 170 190 218 241 256 258 244 246 251 256 259 252 245 254 261 271 328 338 340 348 352
356 1 346 292 349 326 298 328 347 342 340 323 319 304 211 239 210 198 187 181 176 177 187 210 237 257 267 267 263 251 249 260 270 274 263 257 268 281 314 318 323 341 337 343